Air Force Academy, CO

1:57 AM MDT on May 28, 2017 (GMT -0600)
Usaf Academy

Weather History for KAFF - October, 2012

Change the Weather History Date:

Sunday, October 7, 2012

  Actual Average Record
Temperature  
Mean Temperature 39 °F -  
Max Temperature 52 °F 64 °F 74 °F (2010)
Min Temperature 26 °F 36 °F 21 °F (2005)
Degree Days  
Heating Degree Days 26    
Moisture  
Dew Point 20 °F    
Average Humidity 64    
Maximum Humidity 89    
Minimum Humidity 20    
Precipitation  
Precipitation 0.00 in - - ()
Sea Level Pressure  
Sea Level Pressure 30.18 in    
Wind  
Wind Speed 7 mph (SE)    
Max Wind Speed 15 mph    
Max Gust Speed -    
Visibility 10 miles    
Events      
Averages and records for this station are not official NWS values.
T = Trace of Precipitation, MM = Missing Value Source: NWS Daily Summary

Daily Weather History Graph

Daily Weather History Graph

Search for Another Location

Airport or City:

Trip Planner

Search our weather history database for the weather conditions in past years. The results will help you decide how hot, cold, wet, or windy it might be!

Date:

Astronomy

Oct. 07, 2012 Rise Set
Actual Time 7:01 AM MDT 6:31 PM MDT
Civil Twilight 6:34 AM MDT 6:58 PM MDT
Nautical Twilight 6:03 AM MDT 7:29 PM MDT
Astronomical Twilight 5:32 AM MDT 8:00 PM MDT
Moon 11:47 PM MDT (10/7) 1:38 PM MDT (10/7)
Length of Visible Light 12h 23m
Length of Day
11h 30m
Waning Gibbous, 55% of the Moon is Illuminated
Oct 7
Waning Gibbous
Oct 8
Last Quarter
Oct 15
New
Oct 21
First Quarter
Oct 29
Full

Hourly Weather History & Observations

Time (MDT) Temp. Windchill Dew Point Humidity Pressure Visibility Wind Dir Wind Speed Gust Speed Precip Events Conditions
12:04 AM 28.4 °F 19.7 °F 24.8 °F 86% 30.26 in 10.0 mi South 9.2 mph - N/A   Overcast
12:07 AM 28.4 °F 19.7 °F 24.8 °F 86% 30.26 in 10.0 mi South 9.2 mph - N/A   Overcast
12:08 AM 28.4 °F 19.1 °F 24.8 °F 86% 30.26 in 10.0 mi South 10.4 mph - N/A   Overcast
12:55 AM 28.8 °F 19.5 °F 24.4 °F 84% 30.25 in 10.0 mi South 10.4 mph - N/A   Overcast
1:55 AM 28.9 °F 19.2 °F 23.2 °F 79% 30.26 in 10.0 mi SSE 11.5 mph - N/A   Overcast
2:28 AM 28.4 °F 18.5 °F 24.8 °F 86% 30.27 in 10.0 mi SSE 11.5 mph - N/A   Overcast
2:55 AM 28.2 °F 19.5 °F 24.8 °F 87% 30.26 in 10.0 mi SSE 9.2 mph - N/A   Overcast
3:46 AM 28.4 °F 20.4 °F 24.8 °F 86% 30.25 in 10.0 mi SSE 8.1 mph - N/A   Overcast
3:55 AM 28.0 °F 20.0 °F 25.2 °F 89% 30.25 in 10.0 mi SSE 8.1 mph - N/A   Overcast
4:14 AM 28.4 °F 21.2 °F 24.8 °F 86% 30.25 in 10.0 mi South 6.9 mph - N/A   Overcast
4:55 AM 27.9 °F - 25.0 °F 89% 30.25 in 10.0 mi Calm Calm - N/A   Overcast
5:55 AM 28.2 °F - 25.0 °F 88% 30.25 in 10.0 mi Calm Calm - N/A   Overcast
6:40 AM 28.4 °F - 24.8 °F 86% 30.27 in 10.0 mi Calm Calm - N/A   Overcast
6:55 AM 27.7 °F 23.8 °F 24.6 °F 88% 30.27 in 10.0 mi NE 3.5 mph - N/A   Overcast
7:06 AM 26.6 °F 22.6 °F 23.0 °F 86% 30.27 in 10.0 mi NE 3.5 mph - N/A   Scattered Clouds
7:55 AM 27.7 °F - 24.6 °F 88% 30.28 in 10.0 mi Calm Calm - N/A   Clear
8:55 AM 31.1 °F 26.4 °F 25.2 °F 79% 30.26 in 10.0 mi North 4.6 mph - N/A   Clear
9:55 AM 38.1 °F 32.9 °F 18.1 °F 45% 30.22 in 10.0 mi NNW 6.9 mph - N/A   Clear
10:55 AM 42.8 °F 38.6 °F 12.7 °F 30% 30.17 in 10.0 mi NNW 6.9 mph - N/A   Clear
11:55 AM 46.6 °F - 11.7 °F 24% 30.12 in 10.0 mi North 9.2 mph - N/A   Clear
12:55 PM 47.8 °F - 8.8 °F 21% 30.07 in 10.0 mi ENE 5.8 mph - N/A   Clear
1:55 PM 50.5 °F - 10.4 °F 20% 30.04 in 10.0 mi Calm Calm - N/A   Clear
2:55 PM 50.2 °F - 10.9 °F 21% 30.02 in 10.0 mi Calm Calm - N/A   Clear
3:55 PM 52.0 °F - 14.2 °F 22% 30.01 in 10.0 mi South 15.0 mph - N/A   Clear
4:55 PM 50.5 °F - 14.2 °F 23% 30.01 in 10.0 mi South 9.2 mph - N/A   Clear
5:55 PM 48.6 °F - 15.3 °F 26% 30.02 in 10.0 mi SE 10.4 mph - N/A   Clear
6:55 PM 42.3 °F 37.9 °F 17.4 °F 37% 30.10 in 10.0 mi South 6.9 mph - N/A   Clear
7:55 PM 40.3 °F - 18.1 °F 41% 30.14 in 10.0 mi Calm Calm - N/A   Clear
8:55 PM 38.1 °F 33.7 °F 20.1 °F 48% 30.15 in 10.0 mi SE 5.8 mph - N/A   Clear
9:55 PM 33.3 °F - 22.5 °F 65% 30.12 in 10.0 mi Calm Calm - N/A   Clear
10:55 PM 28.2 °F 24.4 °F 21.2 °F 75% 30.11 in 10.0 mi North 3.5 mph - N/A   Clear
11:55 PM 26.4 °F 18.9 °F 20.5 °F 78% 30.10 in 10.0 mi North 6.9 mph - N/A   Clear